Location: Days
(41.3591°N, 106.7339°W)
Time: 02:46:02
(UTC+00:00)

O/OREOS (USA 219) - Pass Details

Date: 02 July 2022
Orbit: 621 x 646 km, 72.0° (Epoch: 22 May)

Event Time Altitude Azimuth Distance (km) Brightness Sun altitude
Rises 07:36:23 0° 336° (NNW) 2,963 ? -25.3°
Reaches altitude 10° 07:38:40 10° 335° (NNW) 2,051 ? -25.3°
Enters shadow 07:42:53 70° 298° (WNW) 690 ? -25.2°
